Погода в Мельниково

Россия / Томская область     56°33′22″N   84°04′47″E
темп.,
°C
ветер,
м/с
пор.,
м/с
влажн.,
%
обл.,
%
осадки,
мм/ч
давл.,
гПа
погр.,
м
23 апреля, пт
пт2301:00−3ссв27945 0.0 1045128
04:00−4ссв26965 0.0 1045108
07:00−4ссв26935 0.0 1046141
10:00+2ссв35805 0.0 1046432
13:00+5ссв3568100 0.1 10451290
16:00+6ссв456197 0.1 10431531
19:00+4св36725 0.3 1043333
22:00−2ссв22935 0.0 104338
24 апреля, сб
сб2401:00−3ссв26935 0.0 104290
04:00−3ссв25968 0.0 104192
07:00−2ссв25925 0.0 1040125
10:00+3с35705 0.0 1038554
13:00+6с345986 0.0 10361442
16:00+6ссз335691 0.1 10341424
19:00+5с247281 0.1 1033126
22:000с118852 0.0 103410
25 апреля, вс
вс2501:00−2зсз11885 0.0 103310
04:00−2з119097 0.0 103210
07:000зсз128882 0.0 103346
10:00+5з23705 0.0 1032420
13:00+8з226081 0.1 10311491
16:00+8з2364100 0.1 1031980
19:00+7ююз117213 0.1 103039
22:00+3ююв11775 0.0 103110
26 апреля, пн
пн2601:00+1юв228037 0.0 103012
04:00+1юв228582 0.0 102920
07:00+2ююв2588100 0.0 1029101
10:00+6ю3669100 0.0 1028343
13:00+10ю4654100 0.0 10271104
16:00+11ю475192 0.0 10251570
19:00+10ю495591 0.0 1023673
22:00+7ююв51362100 0.0 1021527
27 апреля, вт
вт2701:00+7ю51271100 0.5 1018689
04:00+6ююз4117985 0.5 1016451
07:00+5з5127914 0.6 1016560
10:00+8з511674 0.0 10171077
13:00+12зюз7114581 0.5 10172521
16:00+13з61037100 0.1 10183065
19:00+12зюз4846100 0.1 1018973
22:00+8юз31062100 0.0 1019229